TimeMST,TemperatureF,Dew PointF,Humidity,Sea Level PressureIn,VisibilityMPH,Wind Direction,Wind SpeedMPH,Gust SpeedMPH,PrecipitationIn,Events,Conditions,WindDirDegrees,DateUTC
12:53 AM,51.1,21.0,31,29.90,-9999.0,West,6.9,-,N/A,,Clear,280,2012-11-21 07:53:00
1:53 AM,54.0,21.0,28,29.87,-9999.0,WSW,17.3,-,N/A,,Clear,250,2012-11-21 08:53:00
2:53 AM,53.1,21.0,29,29.88,-9999.0,WSW,13.8,24.2,N/A,,Clear,240,2012-11-21 09:53:00
3:53 AM,54.0,21.9,29,29.85,-9999.0,WSW,20.7,28.8,N/A,,Clear,250,2012-11-21 10:53:00
4:53 AM,53.1,21.0,29,29.86,-9999.0,WSW,16.1,25.3,N/A,,Clear,250,2012-11-21 11:53:00
5:53 AM,48.0,21.9,36,29.89,-9999.0,SW,9.2,-,N/A,,Clear,230,2012-11-21 12:53:00
6:53 AM,48.9,21.9,35,29.89,-9999.0,SW,19.6,-,N/A,,Clear,230,2012-11-21 13:53:00
7:53 AM,50.0,21.9,33,29.89,-9999.0,West,12.7,-,N/A,,Clear,260,2012-11-21 14:53:00
8:53 AM,52.0,21.9,31,29.88,-9999.0,WSW,10.4,-,N/A,,Clear,240,2012-11-21 15:53:00
9:53 AM,54.0,19.9,26,29.84,-9999.0,SW,15.0,-,N/A,,Clear,220,2012-11-21 16:53:00
10:53 AM,55.9,19.9,25,29.81,10.0,SSW,5.8,-,N/A,,Clear,210,2012-11-21 17:53:00
11:53 AM,57.0,19.9,24,29.77,10.0,South,10.4,-,N/A,,Clear,180,2012-11-21 18:53:00
12:53 PM,59.0,19.9,22,29.76,10.0,SW,10.4,-,N/A,,Clear,220,2012-11-21 19:53:00
1:53 PM,62.1,19.0,19,29.73,10.0,WNW,17.3,-,N/A,,Clear,290,2012-11-21 20:53:00
2:53 PM,63.0,19.0,18,29.72,10.0,WSW,26.5,31.1,N/A,,Clear,250,2012-11-21 21:53:00
3:53 PM,59.0,19.9,22,29.72,10.0,WSW,18.4,-,N/A,,Clear,240,2012-11-21 22:53:00
4:53 PM,54.0,19.9,26,29.75,10.0,SW,11.5,-,N/A,,Clear,230,2012-11-21 23:53:00
5:53 PM,48.9,21.0,33,29.79,10.0,WSW,10.4,-,N/A,,Clear,240,2012-11-22 00:53:00
6:53 PM,48.0,19.9,33,29.80,10.0,South,5.8,-,N/A,,Clear,190,2012-11-22 01:53:00
7:53 PM,50.0,19.0,29,29.80,10.0,WSW,5.8,-,N/A,,Clear,250,2012-11-22 02:53:00
8:53 PM,52.0,19.9,28,29.78,10.0,WSW,12.7,-,N/A,,Clear,250,2012-11-22 03:53:00
9:53 PM,50.0,21.9,33,29.78,10.0,West,11.5,-,N/A,,Clear,270,2012-11-22 04:53:00
10:53 PM,48.0,23.0,37,29.78,10.0,West,10.4,-,N/A,,Clear,280,2012-11-22 05:53:00
11:53 PM,50.0,25.0,38,29.77,10.0,West,20.7,25.3,N/A,,Clear,280,2012-11-22 06:53:00